Luxor, Egypt

12:11 PM EET on February 25, 2017 (GMT +0200)
Luxor International

Weather History for HELX - September, 2012

Change the Weather History Date:

Sunday, September 30, 2012

  Actual Average Record
Temperature  
Mean Temperature 91 °F -  
Max Temperature 103 °F 91 °F 109 °F (2002)
Min Temperature 79 °F 65 °F 66 °F (2000)
Cooling Degree Days 26    
Growing Degree Days 41 (Base 50)    
Moisture  
Dew Point 60 °F    
Average Humidity 35    
Maximum Humidity 51    
Minimum Humidity 19    
Precipitation  
Precipitation 0.00 in 0.00 in - ()
Sea Level Pressure  
Sea Level Pressure 29.87 in    
Wind  
Wind Speed 3 mph ()    
Max Wind Speed 9 mph    
Max Gust Speed -    
Visibility 6.1 miles    
Events      
Averages and records for this station are not official NWS values.
T = Trace of Precipitation, MM = Missing Value Source: Averaged Metar Reports

Daily Weather History Graph

Daily Weather History Graph

Search for Another Location

Airport or City:

Trip Planner

Search our weather history database for the weather conditions in past years. The results will help you decide how hot, cold, wet, or windy it might be!

Date:

Astronomy

Sep. 30, 2012 Rise Set
Actual Time 5:41 AM EET 5:36 PM EET
Civil Twilight 5:18 AM EET 5:59 PM EET
Nautical Twilight 4:51 AM EET 6:26 PM EET
Astronomical Twilight 4:24 AM EET 6:52 PM EET
Moon 5:38 PM EET (9/30) 5:45 AM EET (9/30)
Length of Visible Light 12h 41m
Length of Day
11h 55m
Full, 100% of the Moon is Illuminated
Sep 30
Full
Oct 8
Last Quarter
Oct 15
New
Oct 22
First Quarter
Oct 29
Full

Hourly Weather History & Observations

Time (EET) Temp. Heat Index Dew Point Humidity Pressure Visibility Wind Dir Wind Speed Gust Speed Precip Events Conditions
12:00 AM 87.8 °F 87.6 °F 60.8 °F 40% 29.83 in - Calm Calm - N/A   Clear
1:00 AM 87.8 °F 87.1 °F 59.0 °F 38% 29.83 in - Calm Calm - N/A   Clear
2:00 AM 85 °F - 60 °F 33% 29.81 in 6 mi Calm Calm - -   Partly Cloudy
2:00 AM 86.0 °F 86.1 °F 60.8 °F 43% 29.80 in - Calm Calm - N/A   Clear
3:00 AM 84.2 °F 85.0 °F 62.6 °F 48% 29.83 in - Calm Calm - N/A   Clear
4:00 AM 82.4 °F 82.9 °F 60.8 °F 48% 29.83 in - SSW 2.3 mph - N/A   Clear
5:00 AM 82.4 °F 82.0 °F 57.2 °F 42% 29.83 in - SE 3.5 mph - N/A   Clear
6:00 AM 84.2 °F 83.5 °F 57.2 °F 40% 29.86 in - SSE 3.5 mph - N/A   Clear
7:00 AM 82.4 °F 82.5 °F 59.0 °F 45% 29.89 in - WSW 3.5 mph - N/A   Clear
8:00 AM 86 °F - 58 °F 29% 29.90 in 6 mi SE 4.6 mph - -   Mostly Cloudy
8:00 AM 86.0 °F 85.4 °F 59.0 °F 40% 29.92 in - SE 4.6 mph - N/A   Clear
9:00 AM 89.6 °F 88.9 °F 59.0 °F 36% 29.92 in - East 9.2 mph - N/A   Clear
10:00 AM 91.4 °F 90.7 °F 59.0 °F 34% 29.92 in - Calm Calm - N/A   Clear
11:00 AM 93.2 °F 93.3 °F 60.8 °F 34% 29.92 in 6.2 mi NE 4.6 mph - N/A   Mostly Cloudy
12:00 PM 96.8 °F 98.0 °F 62.6 °F 32% 29.89 in 6.2 mi NNE 4.6 mph - N/A   Mostly Cloudy
1:00 PM 100.4 °F 103.6 °F 64.4 °F 31% 29.86 in - North 6.9 mph - N/A   Clear
2:00 PM 101 °F - 64 °F 21% 29.82 in 6 mi North 6.9 mph - -   Scattered Clouds
2:00 PM 84.2 °F 85.6 °F 64.4 °F 51% 29.83 in - North 6.9 mph - N/A   Clear
3:00 PM 102.2 °F 104.2 °F 62.6 °F 27% 29.83 in - North 4.6 mph - N/A   Clear
4:00 PM 100.4 °F 102.4 °F 62.6 °F 29% 29.83 in - North 4.6 mph - N/A   Clear
5:00 PM 96.8 °F 98.0 °F 62.6 °F 32% 29.83 in - WNW 9.2 mph - N/A   Clear
6:00 PM 93.2 °F 93.3 °F 60.8 °F 34% 29.83 in - West 6.9 mph - N/A   Clear
7:00 PM 91.4 °F 90.7 °F 59.0 °F 34% 29.86 in - WNW 6.9 mph - N/A   Clear
8:00 PM 94 °F - 56 °F 19% 29.88 in 6 mi Calm Calm - -   Mostly Cloudy
8:00 PM 93.2 °F 91.9 °F 57.2 °F 30% 29.89 in - Calm Calm - N/A   Clear
9:00 PM 91.4 °F 89.9 °F 57.2 °F 31% 29.95 in - West 3.5 mph - N/A   Clear
10:00 PM 89.6 °F 88.9 °F 59.0 °F 36% 29.92 in - NW 2.3 mph - N/A   Clear
11:00 PM 89.6 °F 88.9 °F 59.0 °F 36% 29.92 in - North 3.5 mph - N/A   Clear